Home   Weather   Saalfeld/Saale   Past weeks

Flag for Germany Past Weather in Saalfeld/Saale, Thuringia, Germany — Yesterday and Last 2 Weeks

Now
14 °F

Ice fog.


Feels Like: 8 °F
Forecast: 16 / 32 °F
Wind: 3 mph from Southwest

Location: Erfurt-Bindersleben

Current Time: Dec 5, 2016 at 5:34:26 am

Latest Report: Dec 5, 2016 at 4:50 am


Visibility: 2 mi

Pressure: 30.33 "Hg

Humidity: 100%

Dew Point: 14 °F

Location of Saalfeld/SaaleLocation

Past Weather in Saalfeld/Saale — Graph

°F

Saalfeld/Saale Temperature Yesterday

Maximum temperature yesterday: 25 °F (at 12:20 am)
Minimum temperature yesterday: 18 °F (at 9:20 am)
Average temperature yesterday: 21 °F

High & Low Weather Summary for the Past Weeks

 TemperatureHumidityPressure
High55 °F (Nov 20, 5:50 pm)100% (Nov 23, 12:50 am)30.54 "Hg (Nov 23, 12:50 am)
Low14 °F (Dec 5, 3:50 am)50% (Nov 20, 12:20 pm)29.53 "Hg (Nov 20, 2:50 pm)
Average36 °F87%30.13 "Hg
* Reported Nov 20 4:20 am — Dec 5 4:20 am, Saalfeld/Saale, Weather by CustomWeather, © 2016

Note: Actual official high and low records may vary slightly from our data, if they occured in-between our weather recording intervals... More about our weather records

Advertising

Saalfeld/Saale Weather History for the Previous 24 Hours

Scroll right to see more
 ConditionsComfort  
Time TempWeatherWind HumidityBarometerVisibility
4:20 am
Mon, Dec 5
14 °FIce fog.3 mph100%30.33 "Hg1 mi
3:50 am14 °FIce fog.5 mph92%30.33 "Hg1 mi
3:20 am16 °FIce fog.2 mph100%30.36 "Hg0 mi
2:50 am16 °FIce fog.1 mph100%30.36 "Hg0 mi
2:20 am16 °FIce fog.2 mph100%30.36 "Hg0 mi
1:50 am18 °FIce fog.1 mph100%30.36 "Hg0 mi
1:20 am19 °FIce fog.1 mph100%30.36 "Hg0 mi
12:50 am19 °FIce fog.1 mph100%30.36 "Hg0 mi
12:20 am19 °FIce fog.1 mph100%30.36 "Hg0 mi
11:50 pm
Sun, Dec 4
19 °FIce fog.2 mph100%30.36 "Hg0 mi
11:20 pm19 °FIce fog.2 mph100%30.36 "Hg0 mi
10:50 pm19 °FIce fog.2 mph100%30.36 "Hg0 mi
10:20 pm18 °FIce fog.2 mph100%30.36 "Hg0 mi
9:50 pm18 °FIce fog.1 mph100%30.39 "Hg0 mi
9:20 pm18 °FIce fog.1 mph100%30.39 "Hg0 mi
8:50 pm19 °FIce fog.1 mph100%30.39 "Hg0 mi
8:20 pm19 °FIce fog.1 mph100%30.39 "Hg0 mi
7:50 pm21 °FIce fog.1 mph100%30.39 "Hg0 mi
7:20 pm21 °FIce fog.1 mph100%30.39 "Hg0 mi
6:50 pm21 °FIce fog.2 mph100%30.39 "Hg0 mi
6:20 pm21 °FIce fog.5 mph100%30.36 "Hg0 mi
5:50 pm21 °FIce fog.2 mph100%30.36 "Hg0 mi
5:20 pm21 °FIce fog.2 mph100%30.36 "Hg0 mi
4:50 pm21 °FIce fog.5 mph100%30.36 "Hg0 mi
4:20 pm21 °FIce fog.3 mph100%30.36 "Hg0 mi
3:50 pm23 °FIce fog.3 mph93%30.36 "Hg0 mi
3:20 pm23 °FIce fog.3 mph93%30.36 "Hg0 mi
2:50 pm23 °FIce fog.2 mph100%30.36 "Hg0 mi
2:20 pm23 °FIce fog.2 mph93%30.36 "Hg0 mi
1:50 pm23 °FIce fog.3 mph93%30.36 "Hg0 mi
1:20 pm21 °FIce fog.5 mph100%30.36 "Hg0 mi
12:50 pm21 °FIce fog.3 mph100%30.36 "Hg0 mi
12:20 pm21 °FIce fog.3 mph100%30.36 "Hg0 mi
11:50 am21 °FIce fog.3 mph100%30.39 "Hg0 mi
11:20 am21 °FIce fog.3 mph93%30.39 "Hg0 mi
10:50 am23 °FIce fog.2 mph93%30.39 "Hg1 mi
10:20 am21 °FIce fog.1 mph93%30.39 "Hg0 mi
9:50 am19 °FIce fog.2 mph93%30.39 "Hg0 mi
9:20 am18 °FLight fog.3 mph93%30.39 "HgN/A
8:50 am21 °FFog.1 mph93%30.36 "HgN/A
8:20 am21 °FLight fog.2 mph100%30.36 "HgN/A
7:50 am21 °FClear.5 mph100%30.36 "Hg10 mi
7:20 am21 °FCold.2 mph100%30.33 "Hg2 mi
6:50 am21 °FIce fog.5 mph100%30.33 "Hg1 mi
6:20 am21 °FLight fog.2 mph100%30.33 "HgN/A
5:50 am23 °FLight fog.5 mph86%30.33 "HgN/A
5:20 am19 °FLight fog.8 mph93%30.33 "HgN/A
Weather by CustomWeather, © 2016

See weather overviewHow to use our weather pages